User: anonymous   Login
Location: South Range
(44.4886°N, 65.7879°W)
Time: 12:51:47
(UTC-03:00)
Language:

Iridium 56 - Orbit

View from above orbital plane
View from above orbital plane
View from above satellite
View from above satellite

Ground track
Ground track

The orbit data is extracted from the following two-line orbital elements,

1 25170U 98010B   14303.35648454  .00000776  00000-0  27004-3 0  7212
2 25170 086.4019 032.0791 0002091 112.7226 313.5621 14.34217544874049
Epoch (UTC): 30 October 2014 08:33:20
Eccentricity: 0.0002091
inclination: 86.4019°
perigee height: 776 km
apogee height: 779 km
right ascension of ascending node: 32.0791°
argument of perigee: 112.7226°
revolutions per day: 14.34217544
mean anomaly at epoch: 313.5621°
orbit number at epoch: 87404

The dashed part of the orbit path shows where the satellite is in the earth's shadow,  

DLR